Retour au catalogue

FASAT B

ActifScienceSSO
NORAD 25395·PAYLOAD·🇨🇱 Chile

Lancé Jul 10, 1998 depuis Baikonur Cosmodrome

Loading…

Prochains Passages (prochaines 24 heures)

TLE

FraisSource: Space-Track

Époque: Sep 14, 2026, 10:07 UTC

1 25395U 98043B   26257.42174673  .00000028  00000-0  30872-4 0  9998
2 25395  98.9799 249.5296 0002352 190.4400 169.6731 14.26534918465566

Suivez FASAT B en temps réel avec AllMySat

Download on the App Store